Preview of NWS' New Version of Forecast
This preview is not operational and should not be used for support decisions.

Regional Weather Roundup (RWR)

Issued by National Weather Service (NWS)

                            
000
ASUS44 KMEG 222110
RWRTN 
TENNESSEE HOURLY STATE WEATHER ROUNDUP
NATIONAL WEATHER SERVICE MEMPHIS TN
400 PM CDT WED MAY 22 2019

TNZ002-004-019-021-049-052-054-088>092-222200-
WEST TENNESSEE
  
CITY           SKY/WX    TMP DP  RH WIND       PRES   REMARKS
MEMPHIS INTL   PTSUNNY   89  72  56 S18G28    29.95S HX  96           
NWS MEMPHIS      N/A     89 N/A N/A MISG        N/A                   
JACKSON        FAIR      86  72  62 S9        29.97S HX  92           
DYERSBURG      FAIR      85  74  69 SW7       29.95F HX  92           
SOMERVILLE     MOSUNNY   90  70  51 S14       29.96S HX  95           
COVINGTON      MOSUNNY   86  73  66 S12G20    29.94S HX  93           
UNION CITY     MOSUNNY   84  73  70 S8        29.95S HX  91           
BOLIVAR        MOSUNNY   88  72  58 SE9G17    29.97S HX  94           
PARIS          MOSUNNY   82  73  74 SW9       29.98S                  
HUNTINGDON     MOSUNNY   84  73  70 VRB6G14   29.97F HX  91           
LEXINGTON      MOSUNNY   86  72  62 S9G17     29.98S HX  92           
SELMER         PTSUNNY   88  72  58 S8G15     29.99R HX  94           
SAVANNAH       MOSUNNY   90  70  51 S12       29.99S HX  95           
$$

TNZ008-025-027-028-033-062-065-066-222200-
NORTH MIDDLE TENNESSEE
  
CITY           SKY/WX    TMP DP  RH WIND       PRES   REMARKS
NASHVILLE      FAIR      91  63  39 S16G24    30.02S HX  92           
DICKSON        PTCLDY    84  70  61 S12G18    30.01R                  
PORTLAND       MOSUNNY   88  64  45 S16       30.01S                  
CLARKSVILLE    FAIR      82  71  69 SW5       30.00S                  
LEBANON        PTCLDY    90  66  45 SW15G21   30.00S HX  92           
SMYRNA         FAIR      89  67  47 SW10G16   30.03R HX  92           
MURFREESBORO   PTCLDY    90  63  40 SW10G20   30.01S HX  90           
COOKEVILLE     SUNNY     90  55  31 S13G20    30.06S                  
LIVINGSTON     CLEAR     88  55  33 S9G17     30.06F                  
CROSSVILLE     FAIR      83  53  35 VRB7G23   30.13F                  
ROCKWOOD       CLEAR     84  59  42 SW13G21   30.12S                  
$$

TNZ061-075-076-078-094-096-097-222200-
SOUTH MIDDLE TENNESSEE
  
CITY           SKY/WX    TMP DP  RH WIND       PRES   REMARKS
LAWRENCEBURG   MOCLDY    86  68  54 S9G18     30.04S                  
LEWISBURG      CLEAR     88  63  42 SW12      30.03S                  
FAYETTEVILLE   SUNNY     88  59  37 S13G18    30.05S                  
TULLAHOMA      SUNNY     88  59  37 S13       30.06S                  
WINCHESTER     SUNNY     88  55  33 S14G21    30.07S                  
MCMINNVILLE    SUNNY     88  55  33 SW6G14    30.06S                  
COLUMBIA       MOSUNNY   88  68  51 S8        30.01S HX  91           
SHELBYVILLE    SUNNY     88  63  42 S14       30.04S                  
$$

TNZ017-018-042-046-047-222200-
NORTHEAST TENNESSEE
  
CITY           SKY/WX    TMP DP  RH WIND       PRES   REMARKS
TRI CITIES     FAIR      87  61  41 SW9       30.11F                  
ELIZABETHTON   PTSUNNY   84  64  51 N3        30.12S                  
GREENEVILLE    PTCLDY    86  64  48 CALM      30.12S                  
$$

TNZ012-013-036-069-073-074-222200-
CENTRAL EAST TENNESSEE
  
CITY           SKY/WX    TMP DP  RH WIND       PRES   REMARKS
KNOXVILLE      FAIR      89  62  40 SW13      30.07S                  
OAK RIDGE      FAIR      91  60  35 SW9G22    30.09S HX  90           
DOWNTOWN KNOXV SUNNY     90  64  43 W8G15     30.07S HX  91           
GATLINBURG     SUNNY     90  64  43 VRB6      30.07S HX  91           
MORRISTOWN     MOSUNNY   88  63  42 NW10      30.09S                  
JACKSBORO      SUNNY     88  59  37 SW15G22   30.11F                  
$$

TNZ083-085-099-222200-
SOUTHEAST TENNESSEE
  
CITY           SKY/WX    TMP DP  RH WIND       PRES   REMARKS
CHATTANOOGA    FAIR      90  61  37 S13       30.08S HX  90           
DAYTON         CLEAR     90  61  37 SW13G21   30.07S                  
$$

SKY/WX REPORTED AS FAIR MEANS FEW OR NO CLOUDS BELOW
12 THOUSAND FEET.